Regional Weather Roundup
Issued by NWS

Home | Current Version | Previous Version | Text Only | Print | Product List | Glossary Off
Versions: 1 2 3 4 5 6 7 8 9 10 11 12 13 14 15 16 17 18 19 20 21 22 23 24 25 26 27 28 29 30 31 32 33 34 35 36 37 38 39 40 41 42 43 44 45 46 47 48 49 50

000
ASUS43 KDMX 300507
RWRIA

WEATHER ROUNDUP FOR IOWA
NATIONAL WEATHER SERVICE DES MOINES IA
1200 AM CDT TUE SEP 30 2014

NOTE: "FAIR" INDICATES FEW OR NO CLOUDS BELOW 12,000 FEET WITH NO
SIGNIFICANT WEATHER AND/OR OBSTRUCTIONS TO VISIBILITY.

* - THESE STATIONS ARE NOT NWS STATIONS...THUS NOT UNDER NWS
QUALITY CONTROL.  THEY ALSO DO NOT REPORT WEATHER SUCH
AS PRECIPITATION OR FOG.

IAZ001>003-012>014-020>022-031>034-043>046-300600-
   NORTHWEST IOWA

CITY           SKY/WX    TMP DP  RH WIND       PRES   REMARKS
CARROLL *      MOCLDY    59  57  94 E6        30.01R
CHEROKEE *     PTCLDY    57  55  94 E9        30.01S
DENISON *      CLOUDY    61  61 100 E9        29.99R
LE MARS *        N/A     61  57  88 E7G13     30.00S
ORANGE CITY *  CLEAR     57  52  82 E13G18    30.01R
SHELDON *      PTCLDY    54  50  87 E13G18    30.01R
SIOUX CITY     CLOUDY    62  59  90 E12       29.98S
SPENCER        CLEAR     53  49  86 E10       30.04R
STORM LAKE *   CLEAR     55  55 100 E9        30.03R
$$

IAZ055>058-069>071-079>083-090>094-300600-
   SOUTHWEST IOWA

CITY           SKY/WX    TMP DP  RH WIND       PRES   REMARKS
ATLANTIC *     MOCLDY    64  61  88 NE6       29.98R FOG
AUDUBON *      PTCLDY    61  55  82 CALM      30.01S HAZE
CLARINDA *     CLEAR     55  54  94 CALM      29.98R
COUNCIL BLFS * CLOUDY    66  63  88 E9        29.96R
CRESTON *      MOCLDY    64  57  77 NE9       29.99R
HARLAN  *      MOCLDY    63  61  94 NE8       30.03R
LAMONI         CLEAR     68  57  68 S7        29.97R
RED OAK *      CLEAR     63  55  77 CALM      29.97R HAZE
SHENANDOAH *   CLEAR     59  55  88 CALM      29.97R
$$

IAZ047>049-059>061-072>074-084-300600-
   CENTRAL IOWA

CITY           SKY/WX    TMP DP  RH WIND       PRES   REMARKS
AMES           CLEAR     58  54  86 NE7       30.00S
ANKENY *       CLEAR     61  57  88 NE5       29.99R
CHARITON *     CLEAR     64  61  88 NE6       29.98R FOG
DES MOINES     CLEAR     65  59  81 NE8       29.99R
GRINNELL*      CLEAR     59  55  88 NE7       30.00R
KNOXVILLE *    CLEAR     64  59  82 NE8       29.97S
MARSHALLTOWN   CLEAR     55  52  89 NE9       30.01R
PELLA *        CLEAR     63  59  86 CALM      30.00R
PERRY *          N/A     61  59  94 E3        30.01R
$$

IAZ004>006-015-016-023>025-035-036-300600-
   NORTH CENTRAL IOWA

CITY           SKY/WX    TMP DP  RH WIND       PRES   REMARKS
ALGONA *       PTCLDY    54  50  87 E7        30.04S
CLARION *      CLEAR     54  50  87 E9G15     30.03R
ESTHERVILLE    CLEAR     50  48  93 E7        30.05R
FORT DODGE *   CLEAR     55  48  76 E8        30.03S
MASON CITY     CLEAR     50  48  93 E5        30.06S
FOREST CITY *  CLEAR     52  50  93 E3        30.04S
IOWA FALLS *     N/A     54  50  87 NE7       30.04R
$$

IAZ007>011-017>019-026>030-037>042-050>054-066-300600-
   NORTHEAST IOWA

CITY           SKY/WX    TMP DP  RH WIND       PRES   REMARKS
CHARLES CITY * CLEAR     52  48  87 NE6       30.05S
CLINTON *      CLOUDY    57  52  82 NE12      30.03S
DECORAH *      CLEAR     50  48  93 NE3       30.05R
MONTICELLO *   CLOUDY    55  54  94 NE10G16   30.01S
OELWEIN *      CLOUDY    55  50  82 E7        30.03S
WATERLOO       CLOUDY    54  50  86 NE9       30.02S
$$

IAZ064-065-067-068-078-300600-
   EAST CENTRAL IOWA

CITY           SKY/WX    TMP DP  RH WIND       PRES   REMARKS
IOWA CITY      CLEAR     62  58  86 NE12      29.99S
MT. PLEASANT * CLEAR     66  59  77 N7        29.96S
MUSCATINE *    CLEAR     64  59  82 NE8       29.97S
$$

IAZ062-063-075>077-085>089-095>099-300600-
   SOUTHEAST IOWA

CITY           SKY/WX    TMP DP  RH WIND       PRES   REMARKS
BURLINGTON     CLEAR     62  59  90 NW5       29.95S
FAIRFIELD *    CLEAR     64  61  88 NE10      29.97S
FORT MADISON * CLEAR     68  59  73 W5        29.96S
KEOKUK *       CLEAR     63  61  94 CALM      29.94S
OSKALOOSA *      N/A     64  61  88 NE7       29.98S
CENTERVILLE *  CLEAR     57  57 100 CALM      29.98R
OTTUMWA        CLEAR     64  60  87 NE8       29.97R
WASHINGTON *   CLEAR     64  61  88 NE9       29.97S
$$

ABBREVIATIONS USED IN REMARKS
   TC - TEMPERATURES IN CELSIUS
  WCI - WIND CHILL INDEX
   HX - HEAT INDEX
  VSB - VISIBILITY
$$



USA.gov is the U.S. government's official web portal to all federal, state and local government web resources and services.